AirNav   Pilot Hours Calculator
 
 1175 users online  

7M5 Ozark-Franklin County Airport
Ozark, Arkansas, USA

GOING TO OZARK?


FAA INFORMATION EFFECTIVE 02 JANUARY 2020

Location

FAA Identifier: 7M5
Lat/Long: 35-30-38.5050N 093-50-21.5070W
35-30.641750N 093-50.358450W
35.5106958,-93.8393075
(estimated)
Elevation: 648 ft. / 197.5 m (surveyed)
Variation: 04E (1995)
From city: 2 miles NW of OZARK, AR
Time zone: UTC -6 (UTC -5 during Daylight Saving Time)
Zip code: 72949

Airport Operations

Airport use: Open to the public
Activation date: 04/1940
Control tower: no
ARTCC: MEMPHIS CENTER
FSS: JONESBORO FLIGHT SERVICE STATION
NOTAMs facility: JBR (NOTAM-D service available)
Attendance: UNATTNDD
Wind indicator: lighted
Segmented circle: yes
Lights: DUSK-DAWN. ACTVT MIRL RY 04/22, PAPI RYS 4 &22 - CTAF.
Beacon: white-green (lighted land airport)
Operates sunset to sunrise.

Airport Communications

CTAF/UNICOM: 122.8
RAZORBACK APPROACH: 120.9
RAZORBACK DEPARTURE: 120.9
  • APCH/DEP SVC PRVDD BY MEMPHIS ARTCC ON FREQS 128.475/377.15 (RUSSELLVILLE RCAG) WHEN RAZORBACK APCH CTL CLSD.

Nearby radio navigation aids

VOR radial/distance  VOR name  Freq  Var
FSMr064/22.4FORT SMITH VORTAC110.4007E

 
NDB name  Hdg/Dist  Freq  Var  ID
RUSSELLVILLE290/39.537903ERUE .-. ..- .

Airport Services

Fuel available: 100LL
SELF SERVICE FUEL AVBL 24 HRS WITH CREDIT CARD.
Parking: tiedowns
Bottled oxygen: NONE
Bulk oxygen: NONE

Runway Information

Runway 4/22

Dimensions: 3302 x 75 ft. / 1006 x 23 m
Surface: asphalt, in good condition
Weight bearing capacity: 
Single wheel: 12.0
Runway edge lights: medium intensity
RUNWAY 4  RUNWAY 22
Latitude: 35-30.457067N35-30.826067N
Longitude: 093-50.603000W093-50.113750W
Elevation: 606.0 ft.648.0 ft.
Traffic pattern: leftleft
Runway heading: 043 magnetic, 047 true223 magnetic, 227 true
Markings: nonprecision, in good conditionnonprecision, in good condition
Visual slope indicator: 2-light PAPI on left (3.00 degrees glide path)2-light PAPI on left (4.00 degrees glide path)
RWY 22 PAPI UNUSBL BYD 2 DEG RIGHT OF CNTRLN. RWY 22 PAPI DOES NOT PRVD OBSTN CLNC BYD 4.0 NM FM THLD, UNUSBL BYD 4.0 NM.
Touchdown point: yes, no lightsyes, no lights
Obstructions: 5 ft. bldg, 250 ft. from runway, 10:1 slope to clear35 ft. tree, 800 ft. from runway, 350 ft. right of centerline, 17:1 slope to clear

Airport Ownership and Management from official FAA records

Ownership: Publicly-owned
Owner: CITY OF OZARK-FRANKLIN CO
PO BOX 196
OZARK, AR 72949
Phone 479-667-4726
COUNTY JUDGE.
Manager: J. C. SMITH
P.O. BOX 262
OZARK, AR 72949
Phone 479-667-7618

Airport Operational Statistics

Aircraft based on the field: 14
Single engine airplanes: 10
Multi engine airplanes: 2
Ultralights: 2
    
Aircraft operations: avg 97/week *
79% local general aviation
20% transient general aviation
1% military
* for 12-month period ending 30 April 2018

Additional Remarks

USE EXTRM CTN, WILDLIFE MAY BE ON FLD.
FOR CD CTC RAZORBACK APCH AT 479-649-2416, WHEN APCH CLSD CTC MEMPHIS ARTCC AT 901-368-8453.

Instrument Procedures

NOTE: All procedures below are presented as PDF files. If you need a reader for these files, you should download the free Adobe Reader.

NOT FOR NAVIGATION. Please procure official charts for flight.
FAA instrument procedures published for use from 02 January 2020 at 0901Z to 30 January 2020 at 0900Z.

 
IAPs - Instrument Approach Procedures
RNAV (GPS) RWY 04   download (200KB)
VOR/DME-A   download (174KB)
NOTE: Special Take-Off Minimums/Departure Procedures apply   download (131KB)

Other nearby airports with instrument procedures:

H35 - Clarksville Municipal Airport (20 nm E)
KFSM - Fort Smith Regional Airport (28 nm W)
32A - Danville Municipal Airport (32 nm SE)
KFYV - Drake Field Airport (34 nm NW)
H34 - Huntsville Municipal Airport (34 nm N)
 
Loc | Ops | Rwys | IFR | FBO | Links
Com | Nav | Svcs | Stats | Notes
Area around 7M5 (Ozark-Franklin County Airport)
 
Road maps at: MapQuest Bing Google
 
Aerial photo
WARNING: Photo may not be current or correct
Aerial photo of 7M5 (Ozark-Franklin County Airport)
Photo courtesy of the Arkansas Department of Aeronautics
Taken in the Spring of 2007

Do you have a better or more recent aerial photo of Ozark-Franklin County Airport that you would like to share? If so, please send us your photo.

 
Sectional chart

 
Airport distance calculator
Flying to Ozark-Franklin County Airport? Find the distance to fly.

From to 7M5

Sunrise and sunset
Times for 25-Jan-2020
 Local
(UTC-6)
 Zulu
(UTC)
Morning civil twilight06:5412:54
Sunrise07:2113:21
Sunset17:3523:35
Evening civil twilight18:0200:02

Current date and time
Zulu (UTC)  25-Jan-2020 13:33:39
Local (UTC-6)  25-Jan-2020 07:33:39
 
METAR
KFSM 
28nm W 
251253Z 00000KT 10SM OVC100 00/M01 A3017 RMK AO2 SLP220 T00001006
KFYV 
34nm NW 
251253Z 00000KT 10SM OVC100 M01/M02 A3013 RMK AO2 SLP212 T10111022
KRUE 
39nm SE 
251253Z AUTO 00000KT 10SM BKN110 M02/M04 A3016 RMK AO2 SLP215 I1001 T10221039
KASG 
42nm N 
251248Z 00000KT 10SM BKN100 M03/M03 A3013
KJSV 
47nm W 
251315Z AUTO 05003KT 10SM CLR M01/M02 A3017 RMK AO2
KRKR 
48nm SW 
251315Z AUTO 10SM CLR M02/M03 A3018 RMK AO2
TAF
KFSM 
28nm W 
251139Z 2512/2612 08005KT P6SM BKN100 FM260100 07005KT P6SM OVC050 FM260500 07004KT P6SM OVC015 PROB30 2606/2610 5SM -RA BR
KFYV 
34nm NW 
251139Z 2512/2612 20005KT P6SM BKN100 FM260100 19003KT P6SM OVC050 FM260500 19003KT P6SM OVC015 PROB30 2606/2610 5SM -RA BR
NOTAMs
Click for the latest NOTAMs
NOTAMs are issued by the DoD/FAA and will open in a separate window not controlled by AirNav.

 

 
 

FBO, Fuel Providers, and Aircraft Ground Support

  
 Business Name 
 
 Contact 
 
 Services / Description 
 
Fuel Prices
 
Comments
  
Ozark-Franklin County Airport 479-430-9021
no information available

If you are affiliated with Ozark-Franklin County Airport and would like to show here your services, contact info, web link, logo, and more, click here
100LL
SS $3.75 
 Updated 06-Jan-2020
 
   2 read write
SS=Self service
Update Fuel Prices
 

Would you like to see your business listed on this page?

 If your business provides an interesting product or service to pilots, flight crews, aircraft, or users of the Ozark-Franklin County Airport, you should consider listing it here.  To start the listing process, click on the button below
 
Add a business
 

Other Pages about Ozark-Franklin County Airport

Update a link
 
Copyright © AirNav, LLC. All rights reserved. Privacy Policy  Contact